Cadillac, MI

4:12 PM EDT on October 16, 2019 (GMT -0400)
Wexford County

Weather History for KCAD - September, 2019

Change the Weather History Date:

Thursday, September 19, 2019

  Actual Average Record
Temperature  
Mean Temperature 72 °F -  
Max Temperature 82 °F 68 °F 84 °F (1948)
Min Temperature 63 °F 42 °F 29 °F (1979)
Cooling Degree Days 8    
Growing Degree Days 22 (Base 50)    
Moisture  
Dew Point 55 °F    
Average Humidity 58    
Maximum Humidity 91    
Minimum Humidity 37    
Precipitation  
Precipitation 0.00 in - - ()
Sea Level Pressure  
Sea Level Pressure 30.12 in    
Wind  
Wind Speed 7 mph (SSW)    
Max Wind Speed 13 mph    
Max Gust Speed 17 mph    
Visibility 10 miles    
Events      
Averages and records for this station are not official NWS values.
T = Trace of Precipitation, MM = Missing Value Source: NWS Daily Summary

Daily Weather History Graph

Daily Weather History Graph

Search for Another Location

Airport or City:

Astronomy

Sep. 19, 2019 Rise Set
Actual Time 7:25 AM EDT 7:45 PM EDT
Civil Twilight 6:56 AM EDT 8:14 PM EDT
Nautical Twilight 6:21 AM EDT 8:48 PM EDT
Astronomical Twilight 5:46 AM EDT 9:23 PM EDT
Moon 10:42 PM EDT (9/19) 12:38 PM EDT (9/19)
Length of Visible Light 13h 18m
Length of Day
12h 20m
Waning Gibbous, 74% of the Moon is Illuminated
Sep 19
Waning Gibbous
Sep 21
Last Quarter
Sep 28
New
Oct 5
First Quarter
Oct 13
Full

Hourly Weather History & Observations

Time (EDT) Temp. Heat Index Dew Point Humidity Pressure Visibility Wind Dir Wind Speed Gust Speed Precip Events Conditions
12:17 AM 67.3 °F - 54.5 °F 63% 30.13 in 10.0 mi South 6.9 mph - N/A   Clear
12:35 AM 67.1 °F - 54.0 °F 63% 30.13 in 10.0 mi South 6.9 mph - N/A   Clear
12:36 AM 67.1 °F - 54.0 °F 63% 30.13 in 10.0 mi South 6.9 mph - N/A   Clear
12:55 AM 66.6 °F - 53.8 °F 63% 30.13 in 10.0 mi South 5.8 mph - N/A   Clear
1:15 AM 66.4 °F - 53.4 °F 63% 30.13 in 10.0 mi South 6.9 mph - N/A   Clear
1:20 AM 66.2 °F - 53.4 °F 63% 30.13 in 10.0 mi South 5.8 mph - N/A   Clear
1:38 AM 65.3 °F - 52.7 °F 64% 30.13 in 10.0 mi South 5.8 mph - N/A   Clear
1:56 AM 64.8 °F - 52.2 °F 64% 30.13 in 10.0 mi South 4.6 mph - N/A   Clear
2:15 AM 64.9 °F - 53.1 °F 65% 30.13 in 10.0 mi South 5.8 mph - N/A   Clear
2:16 AM 64.9 °F - 53.1 °F 65% 30.13 in 10.0 mi South 5.8 mph - N/A   Clear
2:35 AM 65.3 °F - 52.3 °F 63% 30.13 in 10.0 mi South 6.9 mph - N/A   Clear
2:59 AM 64.9 °F - 52.3 °F 64% 30.12 in 10.0 mi South 10.4 mph - N/A   Clear
3:17 AM 64.8 °F - 51.6 °F 62% 30.12 in 10.0 mi South 12.7 mph 17.3 mph N/A   Clear
3:35 AM 65.1 °F - 50.9 °F 60% 30.12 in 10.0 mi South 11.5 mph - N/A   Clear
3:55 AM 65.3 °F - 50.9 °F 60% 30.13 in 10.0 mi South 9.2 mph - N/A   Clear
4:15 AM 64.9 °F - 51.3 °F 61% 30.13 in 10.0 mi South 10.4 mph - N/A   Clear
4:20 AM 64.9 °F - 51.8 °F 62% 30.13 in 10.0 mi South 10.4 mph - N/A   Clear
4:38 AM 64.4 °F - 52.7 °F 66% 30.13 in 10.0 mi South 12.7 mph - N/A   Clear
4:56 AM 63.9 °F - 52.7 °F 67% 30.13 in 10.0 mi South 10.4 mph - N/A   Clear
5:15 AM 63.5 °F - 52.7 °F 68% 30.12 in 10.0 mi South 11.5 mph - N/A   Clear
5:35 AM 63.5 °F - 52.0 °F 66% 30.12 in 10.0 mi South 9.2 mph 16.1 mph N/A   Clear
5:36 AM 63.5 °F - 52.0 °F 66% 30.12 in 10.0 mi South 9.2 mph 16.1 mph N/A   Clear
5:59 AM 63.5 °F - 51.4 °F 65% 30.12 in 10.0 mi South 9.2 mph - N/A   Clear
6:17 AM 63.5 °F - 50.9 °F 63% 30.12 in 10.0 mi South 9.2 mph - N/A   Clear
6:35 AM 63.5 °F - 50.5 °F 63% 30.12 in 10.0 mi South 8.1 mph - N/A   Clear
6:55 AM 63.7 °F - 50.0 °F 61% 30.12 in 10.0 mi South 6.9 mph - N/A   Clear
6:56 AM 63.5 °F - 50.0 °F 61% 30.12 in 10.0 mi South 6.9 mph - N/A   Clear
7:15 AM 63.5 °F - 50.0 °F 61% 30.12 in 10.0 mi South 5.8 mph - N/A   Clear
7:20 AM 63.5 °F - 49.8 °F 61% 30.12 in 10.0 mi South 6.9 mph - N/A   Clear
7:38 AM 63.7 °F - 49.6 °F 60% 30.13 in 10.0 mi South 5.8 mph - N/A   Clear
8:15 AM 64.4 °F - 50.9 °F 62% 30.15 in 10.0 mi SSW 6.9 mph - N/A   Clear
8:16 AM 64.4 °F - 50.9 °F 62% 30.15 in 10.0 mi SSW 5.8 mph - N/A   Clear
8:35 AM 64.4 °F - 50.9 °F 62% 30.15 in 10.0 mi South 4.6 mph - N/A   Clear
8:36 AM 64.4 °F - 50.9 °F 62% 30.15 in 10.0 mi South 4.6 mph - N/A   Clear
8:59 AM 65.5 °F - 51.3 °F 60% 30.16 in 10.0 mi South 3.5 mph - N/A   Clear
9:17 AM 66.6 °F - 51.4 °F 58% 30.17 in 10.0 mi SSW 4.6 mph - N/A   Clear
9:35 AM 68.0 °F - 51.6 °F 56% 30.17 in 10.0 mi SW 3.5 mph - N/A   Clear
9:55 AM 69.4 °F - 51.6 °F 53% 30.17 in 10.0 mi SSW 4.6 mph - N/A   Clear
10:15 AM 70.0 °F - 52.2 °F 53% 30.16 in 10.0 mi South 6.9 mph - N/A   Clear
10:20 AM 70.2 °F - 51.8 °F 52% 30.17 in 10.0 mi SSW 5.8 mph - N/A   Clear
10:38 AM 71.4 °F - 52.2 °F 51% 30.14 in 10.0 mi SSW 6.9 mph - N/A   Clear
10:56 AM 73.6 °F - 52.9 °F 48% 30.15 in 10.0 mi SSW 8.1 mph - N/A   Clear
11:15 AM 72.5 °F - 51.6 °F 48% 30.14 in 10.0 mi SSW 8.1 mph - N/A   Clear
11:35 AM 74.1 °F - 52.7 °F 47% 30.14 in 10.0 mi SSW 9.2 mph - N/A   Clear
11:36 AM 74.3 °F - 52.7 °F 47% 30.14 in 10.0 mi SSW 8.1 mph - N/A   Clear
11:59 AM 76.3 °F - 53.1 °F 44% 30.13 in 10.0 mi SSW 5.8 mph - N/A   Clear
12:17 PM 75.7 °F - 54.3 °F 47% 30.13 in 10.0 mi SW 6.9 mph - N/A   Clear
12:35 PM 76.5 °F - 54.5 °F 46% 30.13 in 10.0 mi SSW 8.1 mph - N/A   Clear
12:55 PM 76.8 °F - 54.1 °F 45% 30.13 in 10.0 mi SSW 9.2 mph - N/A   Clear
12:56 PM 76.8 °F - 54.1 °F 45% 30.13 in 10.0 mi SSW 9.2 mph - N/A   Clear
1:15 PM 79.3 °F - 55.0 °F 43% 30.12 in 10.0 mi WSW 6.9 mph - N/A   Clear
1:20 PM 79.7 °F - 54.3 °F 41% 30.12 in 10.0 mi SSW 8.1 mph - N/A   Clear
1:38 PM 80.6 °F - 52.7 °F 38% 30.12 in 10.0 mi SW 8.1 mph - N/A   Clear
1:56 PM 81.5 °F - 52.7 °F 37% 30.11 in 10.0 mi SSW 12.7 mph - N/A   Clear
2:15 PM 81.7 °F - 52.9 °F 37% 30.11 in 10.0 mi SW 10.4 mph - N/A   Clear
2:35 PM 82.6 °F 81.7 °F 54.7 °F 38% 30.10 in 10.0 mi WSW 8.1 mph - N/A   Clear
2:36 PM 82.6 °F 81.7 °F 54.7 °F 38% 30.10 in 10.0 mi WSW 8.1 mph - N/A   Clear
2:59 PM 82.6 °F 81.7 °F 54.9 °F 38% 30.10 in 10.0 mi WSW 6.9 mph - N/A   Clear
3:17 PM 81.9 °F 81.2 °F 54.3 °F 39% 30.10 in 10.0 mi SW 10.4 mph - N/A   Clear
3:35 PM 81.7 °F 81.2 °F 55.4 °F 40% 30.10 in 10.0 mi WSW 5.8 mph 11.5 mph N/A   Clear
3:55 PM 79.9 °F - 55.0 °F 42% 30.10 in 10.0 mi SW 10.4 mph - N/A   Clear
3:56 PM 79.7 °F - 55.2 °F 43% 30.10 in 10.0 mi SW 9.2 mph - N/A   Clear
4:15 PM 81.1 °F 81.0 °F 55.9 °F 42% 30.09 in 10.0 mi WSW 9.2 mph - N/A   Clear
4:20 PM 81.3 °F 81.0 °F 55.8 °F 41% 30.09 in 10.0 mi WSW 8.1 mph - N/A   Clear
4:38 PM 79.7 °F - 57.0 °F 46% 30.09 in 10.0 mi WSW 4.6 mph - N/A   Clear
4:56 PM 79.5 °F - 56.8 °F 46% 30.08 in 10.0 mi SSW 6.9 mph - N/A   Clear
5:15 PM 77.7 °F - 57.6 °F 50% 30.09 in 10.0 mi SW 4.6 mph - N/A   Clear
5:16 PM 77.7 °F - 57.7 °F 50% 30.09 in 10.0 mi SW 4.6 mph - N/A   Clear
5:35 PM 79.7 °F - 57.7 °F 47% 30.09 in 10.0 mi South 6.9 mph - N/A   Clear
5:36 PM 79.9 °F - 57.6 °F 46% 30.09 in 10.0 mi South 6.9 mph - N/A   Clear
5:58 PM 79.7 °F - 56.1 °F 44% 30.09 in 10.0 mi SSW 6.9 mph - N/A   Clear
6:17 PM 79.3 °F - 56.5 °F 45% 30.08 in 10.0 mi South 6.9 mph - N/A   Clear
6:35 PM 78.3 °F - 57.0 °F 48% 30.09 in 10.0 mi South 4.6 mph - N/A   Clear
6:55 PM 76.1 °F - 57.9 °F 53% 30.09 in 10.0 mi SSE 4.6 mph - N/A   Clear
6:56 PM 75.9 °F - 57.9 °F 54% 30.09 in 10.0 mi SSE 4.6 mph - N/A   Clear
7:15 PM 74.5 °F - 57.7 °F 56% 30.09 in 10.0 mi SSE 4.6 mph - N/A   Clear
7:38 PM 73.6 °F - 58.1 °F 58% 30.09 in 10.0 mi SSE 3.5 mph - N/A   Clear
7:56 PM 72.5 °F - 58.5 °F 61% 30.09 in 10.0 mi Calm Calm - N/A   Clear
8:15 PM 68.5 °F - 59.9 °F 74% 30.09 in 10.0 mi Calm Calm - N/A   Clear
8:16 PM 68.5 °F - 60.1 °F 74% 30.09 in 10.0 mi Calm Calm - N/A   Clear
8:59 PM 68.0 °F - 62.8 °F 83% 30.10 in 10.0 mi Calm Calm - N/A   Clear
9:17 PM 67.3 °F - 63.3 °F 87% 30.10 in 10.0 mi Calm Calm - N/A   Clear
9:35 PM 67.3 °F - 63.0 °F 86% 30.11 in 10.0 mi Calm Calm - N/A   Clear
9:55 PM 68.4 °F - 63.3 °F 84% 30.11 in 10.0 mi Calm Calm - N/A   Mostly Cloudy
9:56 PM 68.4 °F - 63.3 °F 84% 30.11 in 10.0 mi Calm Calm - N/A   Mostly Cloudy
10:15 PM 68.9 °F - 63.0 °F 81% 30.11 in 10.0 mi ESE 3.5 mph - N/A   Overcast
10:38 PM 68.9 °F - 62.4 °F 80% 30.11 in 10.0 mi Calm Calm - N/A   Overcast
10:56 PM 66.6 °F - 63.9 °F 91% 30.11 in 10.0 mi Calm Calm - N/A   Mostly Cloudy
11:15 PM 67.6 °F - 63.0 °F 85% 30.11 in 10.0 mi Calm Calm - N/A   Mostly Cloudy
11:16 PM 67.5 °F - 63.1 °F 86% 30.11 in 10.0 mi Calm Calm - N/A   Mostly Cloudy
11:35 PM 67.3 °F - 63.3 °F 87% 30.11 in 10.0 mi Calm Calm - N/A   Mostly Cloudy
11:36 PM 67.3 °F - 63.1 °F 87% 30.11 in 10.0 mi Calm Calm - N/A   Mostly Cloudy
11:59 PM 70.3 °F - 57.7 °F 64% 30.11 in 10.0 mi South 3.5 mph - N/A   Overcast